Flag for Germany Weather past 2 weeks in Papenburg, Lower Saxony, Germany

Now
83 °F

Sunny.


Feels Like: 83 °F
Forecast: 64 / 83 °F
Wind: 7 mph from Southeast

Location: Emden-Koenigspolder

Current Time: Jul 2, 2015 at 12:55:47 PM

Latest Report: Jul 2, 2015 at 12:00 PM


Visibility: 4 mi

Pressure: 30.08 "Hg

Humidity: 48%

Dew point: 61 °F

Location of PapenburgLocation

Historic Weather in Papenburg — Graph

°F

Papenburg temperature yesterday

Maximum temperature yesterday: 84 °F (at 6:00 PM)
Minimum temperature yesterday: 55 °F (at 4:00 AM)
Average temperature yesterday: 70 °F

Past Weeks' High & Low Weather Summary

 TemperatureHumidityPressure
High84 °F (Jul 1, 6:00 PM)100% (Jun 30, 5:00 AM)30.23 "Hg (Jun 30, 5:00 AM)
Low47 °F (Jun 23, 3:00 AM)39% (Jul 1, 4:00 PM)29.65 "Hg (Jun 22, 9:00 PM)
Average60 °F78%30.03 "Hg
* Reported Jun 17 12:00 Noon — Jul 2 11:00 AM, Papenburg, Weather by CustomWeather, © 2015

Note: Actual official high and low records may vary slightly from our data, if they occured in-between our weather recording intervals... More about our weather records

Advertising

Papenburg weather history for previous 24 hours

 ConditionsComfort  
Time TempWeatherWind HumidityBarometerVisibility
11:00 AM
Thu, Jul 2
80 °FSunny.7 mph53%30.08 "Hg8 mi
10:00 AM77 °FSunny.7 mph56%30.08 "Hg2 mi
9:00 AM73 °FSunny.7 mph56%30.09 "Hg5 mi
8:00 AM70 °FSunny.7 mph61%30.08 "Hg9 mi
7:00 AM67 °FSunny.7 mph63%30.08 "Hg7 mi
6:00 AM66 °FSunny.6 mph64%30.08 "Hg14 mi
4:00 AM68 °FClear.7 mph62%30.08 "Hg43 mi
3:00 AM69 °FClear.7 mph58%30.08 "Hg43 mi
2:00 AM69 °FClear.6 mph63%30.08 "Hg40 mi
1:00 AM69 °FClear.5 mph66%30.09 "Hg34 mi
12:00 AM70 °FClear.5 mph65%30.09 "Hg40 mi
11:00 PM
Wed, Jul 1
70 °FClear.3 mph68%30.09 "Hg31 mi
10:00 PM72 °FSunny.2 mph67%30.07 "Hg28 mi
9:00 PM77 °FSunny.5 mph57%30.06 "Hg25 mi
8:00 PM81 °FSunny.6 mph46%30.05 "Hg12 mi
7:00 PM83 °FSunny.7 mph41%30.06 "Hg9 mi
6:00 PM84 °FSunny.7 mph40%30.07 "Hg11 mi
4:00 PM83 °FSunny.8 mph39%30.09 "Hg6 mi
3:00 PM83 °FSunny.8 mph41%30.10 "Hg7 mi
2:00 PM82 °FSunny.8 mph44%30.11 "Hg7 mi
1:00 PM80 °FPassing clouds.8 mph45%30.12 "Hg7 mi
12:00 PM78 °FPartly sunny.7 mph51%30.13 "Hg7 mi
Weather by CustomWeather, © 2015

See weather overviewHow to use our weather pages